Theta_e
325 330 336 334 333 339 341 341 341 341 341 341 341 341 340 340 340 338 337 337 337 337 338 338 338 338 337 338 338 338 338 338 337 337 337 338 338 338 338 338 339 340 340 341 340 340 341 340 341 340 340 340 338 337 334 330 328 328 328 330 332 333 333 333 332 332 336 338 339 341 341 340 338 337 336 335 335 335 335 337 339 341 341 339 338
324 329 337 335 333 337 340 341 340 342 340 341 341 340 340 340 340 337 336 336 336 336 337 337 338 338 338 338 338 338 337 337 337 337 337 337 336 337 338 338 339 339 339 339 339 340 340 341 341 341 340 339 337 335 334 332 331 329 327 327 328 329 330 330 330 330 333 337 339 339 340 339 336 334 334 333 332 332 330 331 334 338 336 335 338
324 329 337 335 334 337 339 340 340 341 340 341 341 340 339 339 339 337 335 335 335 335 335 337 339 339 338 339 338 338 337 338 337 337 337 336 337 337 337 338 339 339 339 339 340 340 340 341 341 341 339 337 336 335 333 333 332 331 329 328 327 326 326 326 327 327 328 333 337 339 340 340 338 335 336 335 333 332 331 329 328 331 329 326 332
326 329 336 336 335 337 339 340 341 341 340 341 340 340 339 339 339 337 335 335 334 335 337 339 339 339 339 339 339 338 338 338 338 338 337 337 337 336 335 337 338 339 340 339 339 340 340 340 340 339 337 337 336 335 333 333 333 332 331 330 329 327 326 325 325 325 325 327 333 339 340 341 341 339 339 338 335 333 332 331 329 331 330 324 323
326 329 335 337 336 337 339 340 340 340 340 340 340 340 339 339 339 338 336 335 335 336 339 339 339 339 339 339 339 339 339 339 338 338 337 337 337 336 336 337 338 339 340 339 339 340 339 339 339 338 337 336 336 334 333 333 334 333 332 331 330 329 328 327 326 325 324 324 328 336 340 340 341 340 340 339 337 334 333 332 331 331 333 331 324
326 330 334 337 339 338 338 340 340 341 340 339 340 340 339 339 339 338 337 337 337 337 339 339 339 339 339 339 339 339 339 339 339 338 337 337 337 337 337 337 338 339 339 339 339 339 338 338 338 337 337 336 335 334 333 333 333 333 333 332 331 330 329 329 328 326 326 324 326 334 338 338 340 340 339 339 337 335 335 332 330 329 330 334 332
326 328 334 337 341 339 337 339 340 341 340 339 340 339 339 338 338 339 338 338 339 338 339 340 340 340 339 339 339 339 339 339 339 338 337 337 337 337 337 337 339 339 339 338 338 338 337 337 337 337 336 336 335 333 332 331 331 332 332 331 331 331 330 330 329 328 328 327 328 333 336 337 339 340 339 339 338 336 336 334 331 329 328 331 334
326 327 334 337 340 339 337 338 339 340 340 339 338 338 338 338 338 338 338 338 339 339 339 339 339 340 340 339 339 339 339 339 338 337 337 336 337 337 337 337 338 338 338 337 337 336 337 336 335 335 335 334 333 331 330 330 330 330 330 330 329 329 329 329 329 329 329 328 328 330 333 336 338 338 339 339 338 337 335 335 334 331 329 329 333
326 326 333 336 339 339 338 337 339 340 339 338 337 338 337 337 338 337 337 336 338 339 339 340 339 340 340 340 340 339 338 338 337 337 336 335 336 336 336 336 336 337 336 336 335 334 335 334 334 334 333 332 331 330 329 329 329 328 328 327 326 326 326 326 327 328 329 329 328 327 329 333 337 337 337 338 338 336 335 337 337 335 333 331 332
328 329 333 336 337 338 338 338 338 339 338 337 337 337 337 338 338 337 337 335 337 339 340 340 339 340 339 340 339 338 338 337 337 336 336 334 334 335 335 335 335 335 334 334 333 332 333 332 332 332 332 331 330 328 327 326 325 324 322 319 317 317 317 319 321 323 326 328 328 328 327 330 335 336 335 336 337 336 335 336 336 336 336 333 333
330 332 334 336 337 337 336 338 338 338 339 337 337 336 337 339 338 338 337 335 336 338 339 340 340 340 339 339 338 338 337 336 335 335 334 333 333 333 333 333 334 333 332 332 331 331 331 331 331 331 330 329 327 325 323 321 318 315 311 308 306 306 307 308 311 315 320 325 327 329 330 330 333 336 334 335 336 335 335 335 335 336 336 334 334
330 332 333 335 336 336 335 337 337 338 338 338 337 336 338 338 338 338 336 336 337 337 338 340 339 339 338 338 337 336 336 335 334 332 332 331 331 330 330 331 332 331 330 330 329 329 329 329 328 328 327 324 322 318 314 311 307 304 302 301 300 300 300 301 303 307 314 321 325 327 330 332 333 335 334 335 335 334 334 334 335 334 334 334 334
328 331 333 335 335 336 335 337 337 336 337 337 338 337 338 338 338 337 337 338 338 338 338 339 338 338 338 337 336 335 334 333 331 330 329 329 329 328 328 329 329 329 328 328 328 328 327 325 323 321 318 314 311 307 304 301 300 300 299 299 299 299 299 299 300 303 309 317 323 326 328 331 332 333 333 333 333 332 333 333 333 333 333 333 332
325 330 332 334 335 335 335 337 336 336 337 337 337 337 337 337 338 337 337 338 338 338 338 338 338 337 336 335 334 333 333 331 329 328 328 328 327 327 328 328 327 327 326 326 326 326 323 320 316 311 307 304 302 300 300 299 299 299 299 299 299 299 299 299 299 301 306 313 320 324 327 328 329 331 331 331 331 331 331 331 331 331 331 331 331
326 329 331 333 334 335 335 336 336 337 337 337 337 337 336 336 337 337 337 338 338 338 337 336 336 335 333 332 332 331 330 329 328 328 327 327 327 327 327 327 326 326 326 325 324 322 318 314 309 304 300 300 299 299 299 299 299 299 299 299 299 299 299 299 299 301 304 310 318 323 326 326 327 328 329 329 329 329 329 329 329 329 328 329 329
329 331 332 332 334 335 336 336 336 337 337 336 337 336 336 336 337 337 337 337 336 335 334 334 333 333 332 330 330 329 328 328 328 327 326 326 326 326 326 326 325 325 325 323 320 316 312 308 303 300 299 299 299 299 299 299 299 299 299 298 299 298 298 298 299 301 303 307 314 321 324 324 325 326 327 327 327 327 327 327 328 327 327 327 327
330 332 332 333 334 334 335 336 336 336 336 336 336 336 336 336 336 336 335 335 334 333 333 333 331 331 330 329 328 328 328 327 327 326 326 325 324 324 324 324 324 324 324 320 316 311 306 302 299 299 299 299 299 298 298 298 298 298 298 298 298 298 298 298 298 299 301 305 311 319 323 322 323 324 324 325 325 325 325 326 325 325 325 325 325
330 331 331 332 333 333 334 335 335 336 335 336 336 336 335 335 335 334 333 333 333 332 332 331 330 329 329 328 328 328 327 326 326 326 325 323 321 321 321 322 323 323 321 316 310 305 301 299 299 299 298 299 298 298 298 298 298 298 298 298 297 297 297 297 297 298 300 303 310 317 319 320 321 322 323 323 323 323 324 323 323 323 323 322 322
329 330 330 331 332 333 333 334 334 335 335 335 335 335 335 334 333 333 333 332 332 331 330 330 329 328 328 327 327 327 326 325 325 324 323 321 319 318 318 320 320 319 315 310 306 301 299 299 298 299 298 298 298 298 298 298 298 298 298 297 297 297 297 297 297 297 298 300 309 315 316 317 320 321 322 321 321 322 321 320 320 319 320 319 319
328 329 330 330 331 332 332 333 333 334 334 334 334 333 332 332 332 332 332 332 331 331 330 329 328 327 327 327 326 326 326 324 323 322 320 319 316 315 316 317 317 315 311 306 302 299 298 298 298 298 298 298 299 298 299 299 298 298 298 298 297 297 296 296 296 296 297 297 305 310 312 315 318 320 320 319 319 318 317 317 318 317 318 318 317
327 328 329 330 330 331 331 332 332 333 334 333 331 329 328 328 330 330 330 331 330 330 330 328 327 327 326 326 326 326 325 324 323 321 320 317 315 313 313 316 316 313 309 304 300 298 298 298 298 298 298 298 298 298 299 299 299 299 299 299 298 298 297 297 296 296 296 296 299 302 306 312 316 319 319 319 318 315 315 316 317 318 318 318 319
326 327 328 329 330 330 330 331 331 331 332 331 328 326 326 327 328 329 330 330 329 330 329 328 327 327 326 326 325 325 324 323 322 322 321 318 314 312 312 316 318 313 307 303 299 297 297 297 297 298 298 298 298 298 298 299 299 299 299 299 298 298 297 297 296 296 296 296 296 298 301 306 313 319 319 319 318 316 317 317 318 319 319 319 320
326 327 327 328 328 330 330 331 331 331 330 328 326 326 326 327 329 329 329 329 329 329 329 328 327 326 326 325 325 324 324 323 322 321 320 318 315 312 314 318 319 313 306 302 298 297 297 297 297 297 297 297 297 298 298 299 299 299 299 298 298 298 297 297 296 296 296 295 295 296 298 301 309 317 319 318 318 318 319 319 319 319 319 319 319
325 326 327 327 326 327 329 330 330 330 329 327 326 325 326 327 329 329 329 329 329 329 328 327 326 326 326 325 325 324 321 321 319 315 315 317 315 313 316 319 318 313 305 300 297 296 297 297 297 297 296 297 297 297 298 299 298 298 298 298 298 298 297 297 296 296 295 295 295 295 296 297 303 313 318 318 317 318 319 318 318 318 318 318 318
323 325 326 326 325 326 327 328 328 328 328 327 327 325 326 327 328 328 329 328 328 328 328 327 326 326 325 324 324 321 318 318 315 311 314 317 317 316 318 318 317 313 306 301 298 296 297 297 297 296 296 297 297 298 298 298 298 298 298 298 298 297 297 296 296 296 295 295 295 295 295 296 299 309 317 318 317 318 317 317 318 318 318 317 317
322 323 325 324 325 326 326 326 326 326 327 327 327 326 325 326 327 328 328 327 327 327 327 326 326 325 325 323 322 319 317 317 314 312 316 317 317 318 318 318 317 312 305 303 300 297 297 296 296 296 296 297 297 298 298 298 298 298 298 298 297 297 297 296 296 296 295 295 295 295 294 295 297 305 315 318 317 317 317 317 317 317 317 317 317
321 321 322 323 323 324 325 325 325 325 326 326 327 326 325 325 327 327 327 327 327 326 325 326 326 325 325 323 321 319 318 317 314 313 314 315 316 317 317 316 313 308 302 300 298 297 297 296 296 296 296 297 297 297 297 298 297 297 297 297 297 296 296 296 296 295 295 295 295 295 294 295 297 304 314 317 317 317 317 317 316 316 316 316 316
320 320 320 321 322 322 324 324 324 324 325 325 326 326 324 324 325 326 325 326 326 325 324 325 325 325 325 323 321 319 318 316 314 312 312 312 313 312 311 311 308 304 300 298 297 296 296 296 296 296 296 297 297 297 297 297 297 297 296 296 296 296 296 295 295 295 294 294 294 294 294 294 297 306 314 316 316 316 317 317 316 316 315 315 315
318 318 319 320 320 321 322 324 323 323 324 324 324 325 324 323 324 324 324 325 324 324 324 324 325 325 324 323 320 318 316 314 312 310 310 310 309 307 305 307 306 303 299 298 297 296 296 296 296 296 296 297 296 297 296 297 296 296 296 296 295 295 295 295 295 295 294 294 294 293 293 294 297 305 313 315 315 315 316 316 316 315 314 315 314
316 317 318 318 319 319 320 322 323 323 323 323 323 324 324 323 323 324 323 324 323 323 323 324 324 324 324 322 319 317 315 313 310 309 308 307 306 304 304 305 304 302 300 298 296 296 296 296 296 296 296 296 296 296 296 296 295 295 295 295 295 295 295 295 294 294 294 293 293 293 293 293 297 305 311 313 314 314 315 315 314 314 314 314 314
314 316 316 317 317 318 319 320 322 323 322 322 322 323 323 322 322 323 323 323 322 321 322 324 324 323 322 319 317 316 314 311 309 307 306 306 304 303 304 304 303 302 299 297 296 295 295 296 296 296 296 296 296 296 295 295 295 295 295 294 294 294 294 294 294 294 293 293 293 293 293 294 297 303 309 310 311 312 313 313 313 313 313 313 313
313 314 314 315 316 316 318 318 320 322 322 322 322 322 323 322 322 323 322 322 321 320 320 322 324 323 322 319 315 314 312 311 308 306 304 305 304 303 304 303 302 300 298 297 296 295 295 296 296 296 296 296 295 295 295 294 294 294 294 294 294 294 294 294 294 293 293 293 293 293 294 295 298 302 306 308 308 309 310 311 311 312 312 312 312
313 312 313 313 314 315 316 317 318 320 321 321 321 321 322 322 322 322 322 322 322 320 319 320 322 323 322 319 315 312 311 310 308 305 304 304 303 302 302 301 300 299 297 296 295 295 295 295 296 296 295 295 295 295 294 294 294 294 293 294 293 294 294 294 293 293 293 293 293 294 294 295 298 302 303 304 305 306 307 308 309 310 311 311 311
312 312 313 312 313 313 314 315 316 317 319 320 320 320 320 321 321 321 321 321 320 320 319 319 320 321 321 318 315 312 310 309 307 305 304 303 302 300 300 299 299 297 297 296 295 295 295 295 295 295 295 294 294 294 294 293 293 293 293 293 293 294 294 294 293 293 292 293 293 294 295 295 298 301 302 302 302 303 304 305 306 308 309 309 309
310 311 311 311 312 312 313 313 314 315 317 319 319 319 320 320 320 320 320 319 320 320 320 319 320 320 320 318 316 313 310 309 307 305 304 302 300 299 298 298 297 297 296 295 295 295 295 295 295 295 294 293 293 293 293 293 293 293 293 293 293 294 294 293 293 293 292 293 294 294 295 295 296 297 298 298 298 298 300 301 303 305 306 306 307
309 309 310 310 311 311 312 312 313 314 315 316 318 319 320 319 320 320 320 320 320 320 319 319 319 319 319 318 316 313 311 309 307 305 303 302 299 298 297 297 296 296 295 295 295 295 295 295 295 294 294 293 293 293 292 292 292 292 293 293 293 293 293 292 292 292 293 293 294 295 295 295 294 294 294 294 294 293 294 295 298 300 302 303 304
308 308 309 309 310 310 310 311 311 312 313 315 316 318 319 319 319 320 320 320 320 320 319 318 318 318 319 318 316 314 311 309 307 305 304 301 299 297 297 296 296 296 295 295 294 294 295 295 294 294 294 293 293 292 292 292 292 292 292 292 292 292 292 292 292 292 293 293 294 295 295 294 294 294 293 292 292 291 291 291 292 294 296 299 300
308 308 308 308 309 309 310 310 310 311 312 313 315 316 317 317 318 318 319 318 318 318 318 317 317 317 317 316 315 313 311 309 308 306 304 302 298 297 296 296 296 295 295 294 294 294 295 295 294 294 293 293 292 292 292 291 291 291 291 292 291 291 291 292 292 292 293 293 294 294 294 294 293 293 292 291 291 290 290 290 290 290 291 294 295
307 307 307 307 308 308 309 309 309 310 310 312 313 314 315 316 316 316 316 316 316 316 316 316 315 315 315 315 315 313 311 310 308 306 304 301 298 296 296 296 296 295 294 294 294 294 294 294 294 294 293 292 293 292 292 291 291 291 291 291 291 291 291 291 292 292 292 292 292 292 292 292 292 291 291 290 290 290 289 289 289 289 289 290 291
307 306 306 307 307 308 308 308 308 308 309 310 312 313 314 314 314 314 314 314 314 314 314 314 313 314 314 314 314 312 311 309 307 306 304 301 297 296 296 296 295 294 293 293 294 294 294 294 293 293 292 292 292 293 292 291 291 291 291 290 290 290 291 291 291 291 291 290 290 290 290 290 290 290 290 290 289 289 288 288 288 288 288 288 289
306 306 305 306 306 307 308 308 308 308 308 309 310 311 312 313 313 313 313 313 312 312 312 312 312 312 312 313 312 311 310 309 308 305 303 300 297 296 296 296 295 294 293 293 294 294 294 294 293 292 292 291 291 291 291 291 292 293 292 292 291 290 290 291 291 291 290 290 290 290 290 290 289 289 289 289 288 288 288 288 288 288 288 288 288
306 306 305 305 306 307 308 308 307 307 307 307 308 310 311 312 312 312 312 311 311 311 310 310 311 311 311 311 311 310 309 308 307 305 302 299 296 296 296 295 295 294 293 293 293 294 294 293 293 292 291 291 291 290 290 292 294 295 295 294 292 291 290 290 290 290 290 290 290 290 290 289 289 288 288 288 287 288 287 287 288 288 288 287 287
304 304 304 304 304 305 306 307 307 306 306 306 307 308 309 310 310 310 310 309 309 309 309 309 309 309 309 309 309 308 308 307 306 304 301 298 296 296 295 295 295 294 293 293 293 293 293 293 293 292 291 292 293 291 290 293 296 297 297 296 296 295 293 291 291 290 289 289 289 289 289 288 288 288 287 287 287 287 287 287 287 287 287 287 287
304 303 302 303 303 304 305 306 306 306 306 306 305 306 307 307 308 308 308 307 307 306 307 307 306 306 307 307 307 307 307 307 305 304 300 297 296 295 295 295 295 294 293 293 293 293 293 293 292 292 291 292 293 291 290 292 296 298 298 298 297 297 297 295 293 291 289 289 289 289 289 288 288 287 287 287 287 287 287 287 287 287 287 287 287
304 302 301 301 302 303 304 305 305 305 305 305 305 305 305 305 306 306 306 305 305 304 304 305 304 304 304 304 304 304 305 305 305 303 300 297 296 295 295 295 295 294 293 293 293 293 293 293 292 292 291 292 293 292 290 291 294 297 298 299 297 297 300 298 295 293 290 289 290 289 288 288 287 287 288 287 287 287 287 287 287 287 287 287 287
301 299 300 300 300 301 302 303 305 305 304 304 304 304 304 304 304 304 304 304 304 304 303 303 303 302 302 302 302 303 303 303 303 302 300 297 296 295 295 295 295 294 294 293 292 293 293 293 292 292 292 292 294 294 292 290 292 294 296 298 298 299 301 298 297 296 292 290 291 290 288 288 287 288 288 288 287 287 287 286 286 287 286 286 287
299 298 299 299 300 300 301 302 303 304 303 303 303 303 303 304 303 304 304 304 304 304 303 302 302 301 301 301 301 301 301 301 301 300 299 297 296 295 295 295 295 294 294 293 292 292 293 293 293 292 292 292 294 295 293 291 291 293 294 296 297 297 298 297 298 299 296 293 292 290 289 288 288 288 288 288 287 287 287 286 286 286 286 286 287
297 298 298 298 299 300 300 301 302 303 302 302 302 303 303 303 303 303 303 303 304 304 302 301 301 300 300 300 300 300 300 299 299 298 297 296 296 295 295 295 295 294 294 293 293 292 292 292 292 292 292 292 293 295 295 293 292 292 292 293 294 293 294 296 298 300 299 298 294 291 291 289 288 288 288 288 287 287 287 286 286 286 286 286 286
297 297 297 298 298 298 299 300 300 301 301 301 302 302 302 303 303 303 303 303 303 303 303 301 301 300 299 299 299 298 298 298 298 297 297 296 296 296 295 295 295 295 294 293 293 292 292 292 292 292 292 291 292 293 295 295 293 293 293 292 293 293 292 293 295 297 299 300 298 295 293 290 289 288 288 288 287 287 287 286 286 286 286 286 286
297 296 296 296 297 297 298 298 299 299 300 300 301 301 301 302 303 303 303 303 303 302 302 301 300 300 299 299 298 298 297 297 297 297 296 296 296 296 295 295 295 295 294 294 293 293 292 292 292 292 292 292 291 292 294 295 294 294 294 293 293 293 293 293 294 295 297 298 299 298 296 293 292 291 289 288 288 287 286 286 286 285 286 286 286
296 296 295 295 295 295 296 297 297 297 298 299 299 300 301 301 302 302 302 303 303 302 302 301 301 300 299 299 298 297 297 296 296 296 296 296 295 296 295 295 295 295 295 295 294 293 292 292 292 292 292 291 291 291 292 294 294 294 295 294 293 294 294 295 295 295 296 296 297 298 297 295 295 294 290 288 288 287 286 286 285 286 285 286 286
Wind_Speed
25 23 25 25 26 24 21 21 19 18 17 17 16 15 15 15 14 14 14 13 13 13 12 12 11 10 10 10 9 10 10 10 10 10 10 10 9 10 10 10 9 8 8 7 7 7 7 8 8 9 10 10 9 9 9 10 9 9 9 9 10 10 10 10 10 10 10 10 12 13 13 12 11 11 12 12 11 11 10 10 11 9 7 7 7
27 28 26 26 26 25 22 21 21 19 18 18 16 16 16 15 15 15 15 15 14 14 13 12 12 11 11 10 10 9 9 9 9 10 10 10 10 9 9 9 9 8 8 7 7 7 7 8 9 9 9 8 7 7 8 8 8 8 8 8 8 8 8 8 8 9 10 10 11 12 12 12 11 10 11 11 10 10 9 9 10 9 7 7 7
27 30 27 27 26 25 23 21 21 20 20 19 17 17 17 16 16 16 16 15 15 15 14 13 12 11 11 10 10 9 9 9 9 9 9 9 9 9 9 10 9 8 7 7 7 7 8 8 9 9 7 6 5 5 5 6 7 7 7 7 6 6 6 6 7 7 9 9 9 11 10 11 10 10 10 10 9 9 9 9 9 9 8 6 6
26 31 29 28 27 25 24 22 21 20 20 19 19 18 17 17 16 16 16 15 15 14 13 12 12 11 11 10 10 9 9 9 9 8 8 9 9 9 9 9 9 8 7 7 7 7 8 8 8 6 5 4 3 3 3 4 5 6 6 5 5 5 5 5 5 6 7 8 8 10 8 8 8 8 8 8 8 8 9 9 9 9 9 7 7
28 31 29 29 27 26 25 23 22 21 20 20 19 19 18 17 17 15 15 15 14 13 13 12 12 12 11 11 11 10 10 10 9 9 8 8 8 8 8 8 8 8 8 7 7 7 7 7 7 5 4 3 3 2 2 3 3 3 3 3 3 3 3 3 4 4 5 6 7 9 8 6 6 7 6 6 6 6 7 8 8 8 9 8 7
29 30 30 27 23 24 26 25 23 21 20 20 19 19 19 18 17 16 15 15 14 13 13 12 12 12 12 12 12 11 10 10 9 9 8 7 8 8 8 8 8 8 8 7 7 7 7 6 6 5 4 3 2 2 1 1 1 1 1 1 1 1 2 1 2 2 3 4 6 7 7 6 5 5 5 5 4 5 6 7 7 7 8 8 7
29 30 30 25 20 22 27 27 24 22 21 20 19 19 19 18 17 16 15 14 14 13 13 13 12 13 13 13 12 12 11 10 9 8 7 7 7 7 8 8 8 8 8 7 7 7 6 6 6 5 5 4 3 2 2 2 2 2 2 2 2 2 2 1 2 2 2 3 5 5 5 5 5 5 4 4 4 5 6 6 6 7 7 7 8
29 31 30 23 19 21 27 28 25 23 21 21 20 20 19 18 17 16 16 15 14 14 14 13 13 13 13 13 13 12 11 10 9 8 7 7 7 7 8 8 8 8 8 7 6 6 5 6 5 6 4 4 3 3 3 4 4 5 5 5 5 4 4 3 3 2 2 3 4 4 5 5 4 4 3 3 2 3 5 5 5 5 6 7 9
28 32 30 23 19 21 26 27 25 23 22 22 21 20 19 18 17 17 16 16 15 15 15 14 14 14 14 13 12 12 11 9 9 8 7 7 7 7 7 8 8 7 7 6 5 5 5 5 4 5 4 4 4 4 5 6 6 6 6 6 6 6 6 5 4 3 2 3 3 4 5 5 5 4 3 2 2 2 4 5 4 4 4 5 7
26 29 27 22 18 21 27 27 25 23 21 22 22 21 20 18 18 17 16 17 17 16 15 15 15 14 15 13 12 12 11 9 8 8 8 9 8 8 7 8 8 7 8 6 5 5 4 4 6 6 5 6 6 7 7 7 7 7 7 6 6 6 6 5 5 4 2 3 4 4 4 5 5 2 2 2 2 3 4 4 4 4 4 4 5
23 25 24 19 18 23 28 26 25 23 21 21 22 21 20 18 18 17 17 17 17 17 16 15 16 15 14 12 12 11 10 9 9 8 9 9 8 8 7 8 7 8 9 6 6 5 4 4 7 8 7 8 8 8 8 8 8 7 7 6 5 5 4 4 4 4 3 4 4 5 4 5 5 3 3 3 2 3 3 4 5 6 5 4 5
23 22 20 18 19 25 27 26 24 23 21 21 21 21 20 19 18 18 18 18 17 18 17 16 15 14 13 12 11 10 10 10 9 10 10 10 9 9 9 9 9 9 9 7 7 6 6 5 8 9 9 9 8 8 7 7 7 6 6 5 4 3 2 2 2 3 4 4 5 6 6 5 5 5 4 4 3 4 4 4 5 4 4 4 4
25 20 18 18 20 26 27 25 24 23 22 21 21 21 20 20 19 18 19 18 18 18 16 15 14 13 13 12 11 11 11 10 11 12 12 11 11 11 11 10 10 9 9 8 9 8 7 8 9 9 9 8 7 6 6 5 4 3 3 3 3 3 2 0 1 3 4 5 5 6 7 5 4 7 5 3 3 3 3 3 2 2 2 2 1
26 21 19 19 20 26 27 25 24 22 22 21 21 21 20 20 19 19 19 18 18 17 16 15 14 14 13 13 12 13 13 12 13 14 13 13 13 12 12 11 10 10 10 9 9 9 9 9 9 8 7 6 4 3 2 1 2 3 3 4 4 4 3 3 2 3 4 6 6 6 6 5 4 7 5 3 3 3 3 2 2 2 1 3 4
24 21 21 22 22 26 28 26 25 24 22 22 22 21 20 20 20 19 19 18 17 17 16 14 15 16 15 14 14 14 15 14 14 14 13 13 13 12 12 12 11 11 11 10 11 11 10 9 8 6 4 2 1 1 2 2 3 3 4 4 5 5 5 4 3 3 4 5 6 6 6 5 5 5 4 3 3 3 2 1 1 2 4 5 4
20 17 21 25 24 24 28 28 27 26 25 24 23 22 21 21 20 20 19 18 17 17 16 16 17 18 17 16 16 15 16 17 16 14 14 13 13 13 13 12 12 11 11 11 12 11 9 8 6 4 3 2 3 3 3 3 3 3 4 4 5 5 5 5 4 3 4 5 6 6 5 4 5 5 3 3 2 2 1 0 1 5 6 6 6
16 15 19 26 28 24 24 27 28 29 27 26 25 24 24 23 22 22 21 20 20 20 20 20 20 20 20 18 17 17 17 18 17 15 15 14 14 14 13 13 13 12 11 11 11 10 9 7 5 4 4 4 4 4 3 3 3 3 4 4 5 5 6 5 5 4 4 4 6 6 4 3 4 4 3 3 2 1 1 1 4 5 6 7 8
15 17 18 24 31 28 21 22 27 29 29 28 27 27 26 26 26 25 24 23 23 22 22 22 20 20 20 19 19 20 19 19 17 16 15 14 14 14 14 14 13 12 12 12 11 10 8 6 5 5 4 4 4 3 3 3 3 3 4 4 5 5 5 5 5 4 4 4 6 5 3 3 4 3 3 2 2 1 1 2 5 5 6 7 8
15 17 19 23 31 32 26 23 25 27 26 25 27 28 28 27 28 27 26 25 24 23 23 22 21 20 20 20 21 21 21 20 18 17 16 15 14 15 15 14 13 13 13 12 11 10 8 7 6 6 5 4 4 3 2 2 2 3 4 4 5 5 5 5 5 4 4 4 5 4 4 5 3 2 2 1 1 0 2 4 5 5 5 5 6
15 18 23 28 32 34 31 27 26 26 23 22 25 29 30 29 29 28 27 26 25 24 23 23 22 22 21 22 23 23 22 21 19 18 17 16 16 16 15 14 14 14 14 13 12 10 9 8 7 7 6 5 4 3 2 1 2 3 4 5 5 5 5 5 4 4 4 4 5 4 5 5 3 2 1 0 0 2 3 3 3 2 2 2 3
15 18 23 27 32 36 34 27 26 30 27 26 30 30 30 29 29 28 28 27 26 25 24 24 24 23 23 24 24 22 20 19 18 18 17 17 17 17 16 15 15 15 15 14 12 11 10 9 8 8 6 5 4 2 1 1 1 2 3 4 5 5 5 5 5 4 3 3 3 3 5 5 3 3 2 2 1 1 1 2 3 3 4 4 5
16 18 21 23 27 36 39 31 27 33 34 33 34 32 31 29 28 28 28 28 27 26 26 26 26 25 26 26 24 20 18 17 17 17 17 18 18 17 17 16 16 17 16 14 13 12 11 10 9 8 6 5 4 3 2 1 1 1 2 2 3 4 5 5 5 4 3 1 0 1 3 4 3 4 3 3 3 3 4 4 5 5 5 6 7
19 21 24 25 25 30 39 39 33 35 37 36 35 33 31 30 28 25 25 28 28 27 27 27 27 27 28 28 22 19 19 17 17 19 18 18 19 18 18 17 17 17 16 15 14 13 12 12 10 8 7 6 5 4 3 3 2 2 2 2 3 4 4 4 4 4 3 2 2 2 2 3 3 3 3 3 4 4 5 5 5 5 5 6 6
26 25 23 24 26 27 36 41 38 39 38 35 34 34 32 30 27 24 23 24 25 27 28 29 29 29 31 28 21 22 23 20 20 23 21 19 19 19 20 19 18 18 17 16 15 15 14 13 11 9 8 7 6 5 5 4 4 3 3 3 3 3 4 4 5 4 4 4 3 3 2 3 3 3 3 3 4 4 5 5 5 5 6 6 6
27 23 21 26 30 31 34 34 33 36 35 30 32 36 34 31 28 24 24 24 24 27 29 32 33 32 33 29 26 28 27 22 23 24 21 19 18 20 20 19 18 19 18 17 17 18 16 14 12 11 9 8 7 7 6 6 5 4 4 3 3 3 4 4 4 5 5 5 5 4 3 3 4 3 3 3 4 4 5 5 6 6 6 6 6
24 25 27 32 34 36 38 32 28 32 30 25 28 36 37 34 30 26 26 26 25 27 31 35 36 35 34 32 32 31 27 24 25 25 23 20 19 20 20 19 19 21 21 20 20 19 17 14 13 12 11 10 9 8 8 7 6 6 5 4 4 3 3 4 4 5 5 5 6 5 5 3 4 4 4 4 4 5 6 6 6 6 6 6 6
27 30 32 33 33 37 41 37 32 30 28 25 26 34 40 38 33 30 30 29 29 31 35 36 37 37 36 35 34 31 29 27 27 28 27 24 23 22 23 23 24 25 24 23 22 19 17 16 15 14 13 12 11 10 9 9 8 7 6 5 4 4 4 4 4 4 5 5 6 6 5 4 4 5 4 4 5 5 6 6 6 6 6 7 6
28 32 33 33 34 38 41 41 36 29 27 27 26 29 39 41 37 37 37 34 34 36 37 38 38 39 38 37 35 33 31 29 30 31 31 29 27 28 29 29 28 26 25 24 21 19 18 17 16 15 14 13 12 11 11 10 9 8 7 6 5 4 4 4 4 5 5 5 5 5 5 5 5 5 4 4 5 5 6 6 6 6 6 7 6
30 35 34 35 37 37 40 42 39 34 28 27 27 27 35 42 39 39 41 38 39 39 38 40 41 40 39 38 36 35 33 32 33 33 33 32 32 33 32 31 29 27 25 24 21 20 19 18 17 16 15 14 13 12 12 11 10 9 7 6 5 5 4 5 5 5 5 5 5 5 4 5 7 7 5 4 4 5 5 6 6 6 6 7 6
34 33 33 37 37 36 39 43 43 39 32 28 28 28 34 43 42 41 43 41 42 41 41 42 42 42 41 40 38 37 36 35 35 35 35 35 35 35 33 32 30 28 25 24 23 21 20 19 18 17 16 15 15 13 12 11 10 9 8 7 6 5 5 5 5 5 5 4 4 4 3 5 8 8 7 5 5 5 5 6 5 5 6 6 5
33 30 35 37 36 37 38 40 42 42 37 31 29 29 32 38 37 37 43 45 45 44 43 44 43 44 44 42 40 39 38 37 37 37 37 37 36 36 35 33 31 28 26 25 24 23 21 20 19 18 17 17 16 14 13 12 11 9 8 7 6 5 5 5 5 4 4 4 4 4 4 6 8 9 8 6 6 7 6 6 5 5 5 5 5
31 35 38 35 36 38 36 37 40 42 41 35 31 30 30 32 31 30 37 41 45 47 44 45 45 45 45 43 42 40 40 40 39 39 38 38 38 37 36 35 32 30 28 26 25 23 22 21 20 19 18 18 16 15 14 13 12 10 9 8 7 6 5 5 5 5 5 4 4 4 5 7 9 10 9 8 7 7 7 7 6 6 5 5 5
32 36 35 35 37 37 37 39 39 41 43 39 33 32 32 32 30 29 31 31 39 49 47 47 48 47 47 45 43 42 42 41 40 40 39 39 39 38 37 36 34 32 29 28 26 24 23 22 21 20 19 18 17 16 15 14 13 12 10 9 8 7 6 5 5 5 5 5 5 6 7 9 10 10 10 9 9 9 7 7 6 6 6 5 5
31 30 31 35 37 37 40 41 40 43 45 43 38 36 37 36 33 33 30 27 36 49 49 48 49 48 48 46 45 44 43 42 41 41 40 40 40 39 38 37 35 33 30 29 27 26 25 24 23 22 21 19 18 18 16 15 14 13 11 10 8 7 6 6 6 6 6 6 7 8 8 10 11 11 11 10 10 10 9 8 7 6 7 6 5
31 30 33 35 34 36 39 40 42 43 44 46 44 43 42 39 39 38 30 28 38 48 48 48 49 49 49 48 47 46 44 43 42 41 41 41 41 40 39 38 36 34 31 30 29 28 27 26 25 24 23 21 21 19 18 16 15 14 12 10 9 8 7 7 7 7 8 8 9 9 10 11 12 12 11 10 10 10 10 10 9 8 8 8 7
32 33 34 34 33 35 37 39 42 43 45 48 49 48 44 41 43 42 36 36 43 46 47 48 49 50 50 49 48 47 45 45 43 42 42 42 42 41 40 39 37 34 33 33 31 30 29 28 27 26 25 24 22 21 19 17 16 14 12 11 10 9 8 8 8 9 9 10 11 11 12 12 13 13 12 11 10 10 10 11 11 11 10 9 8
31 32 32 32 33 33 35 37 41 44 45 47 48 48 46 43 43 43 43 43 45 45 46 47 48 49 49 49 49 48 47 46 45 43 42 43 42 41 41 39 38 36 35 35 33 32 31 29 28 27 26 25 24 22 20 17 16 15 13 12 11 10 9 9 9 10 11 12 12 13 13 13 12 12 12 12 11 10 10 11 11 11 11 10 10
28 29 31 31 31 32 34 36 38 40 42 43 44 44 43 42 40 40 42 43 43 45 45 45 46 48 49 50 50 49 48 47 46 44 43 43 43 42 41 40 38 38 37 36 35 34 32 31 30 29 27 26 24 22 20 18 17 14 12 12 11 10 10 10 11 11 11 13 14 14 14 13 13 13 12 12 11 11 11 11 11 11 11 11 10
25 26 27 28 29 30 32 34 34 35 37 38 38 38 36 33 33 35 39 40 40 42 43 44 44 46 48 49 50 49 49 48 47 45 45 44 43 43 42 41 40 39 38 37 36 35 33 32 31 30 29 26 22 21 20 19 16 14 12 11 10 11 11 11 12 12 12 14 15 14 14 13 13 13 12 12 11 11 10 10 11 11 11 11 10
20 22 22 23 25 27 29 30 31 32 32 31 32 31 27 25 25 28 33 37 38 40 42 43 43 45 48 49 50 49 49 49 48 47 46 45 45 44 43 42 41 40 40 39 38 37 36 35 33 32 31 28 23 21 21 20 16 11 9 9 9 10 11 12 13 13 13 14 14 13 13 13 12 12 12 11 10 9 9 9 10 10 10 10 9
16 16 16 18 21 22 25 27 28 30 29 27 28 28 26 24 24 26 29 31 35 39 40 42 43 44 46 48 48 49 48 49 49 48 47 47 45 44 44 43 42 42 41 40 40 39 38 36 34 32 31 29 25 24 24 21 15 10 6 5 6 7 10 12 12 13 14 14 14 12 12 13 12 12 11 10 9 9 9 9 9 10 10 8 7
13 13 13 14 16 17 19 22 24 27 29 28 28 28 27 27 27 27 27 24 29 36 36 38 42 43 44 46 47 47 48 48 48 48 48 47 46 45 44 44 43 42 42 41 40 40 38 37 35 32 30 27 24 26 27 21 14 10 9 6 4 5 7 9 9 12 14 14 14 13 12 12 12 11 10 9 8 8 8 9 9 10 9 8 7
16 14 12 11 11 13 15 17 19 24 28 29 30 30 27 28 26 24 23 20 23 30 32 33 38 41 42 43 45 45 46 47 47 48 48 48 47 46 45 45 44 44 43 42 40 40 39 39 38 35 31 24 19 26 32 24 14 11 10 6 5 4 4 7 9 11 14 15 14 13 13 13 13 11 9 7 7 7 8 8 9 9 9 8 7
18 17 17 13 9 10 12 14 17 21 24 27 31 30 26 27 27 25 23 20 19 23 28 31 33 36 38 40 42 44 45 46 47 48 48 49 48 47 47 46 46 45 45 44 42 42 41 41 40 37 34 26 19 25 35 31 20 13 8 3 3 4 3 7 11 11 13 15 13 12 13 14 13 11 8 7 7 7 7 7 8 9 9 9 8
18 21 22 16 11 9 9 11 13 17 21 24 28 28 26 25 25 24 22 19 19 19 22 25 24 27 32 34 38 41 43 45 47 48 49 50 49 49 48 47 47 47 46 46 45 44 44 43 43 40 38 33 24 24 33 36 29 20 12 3 3 3 3 6 9 9 13 14 13 12 14 15 15 13 10 9 8 7 8 8 8 9 10 10 10
23 28 26 21 16 11 8 8 9 12 17 21 24 25 24 21 19 20 18 17 18 18 19 19 19 24 28 30 35 39 42 44 46 48 49 49 49 49 49 48 48 48 48 47 46 46 45 45 45 43 42 37 27 21 27 36 34 28 21 11 7 4 2 8 7 4 9 12 12 15 16 17 17 15 13 12 11 9 9 9 9 9 11 11 12
27 32 30 27 22 16 12 7 6 7 11 16 20 22 21 19 19 20 18 17 17 16 17 18 18 23 26 29 33 36 39 42 43 44 46 47 48 48 49 49 48 48 49 48 47 47 47 46 46 45 44 39 29 21 24 34 33 29 28 21 14 9 5 9 6 2 5 7 11 15 17 19 20 18 17 16 14 11 10 11 10 11 12 13 15
32 37 33 30 27 22 17 10 6 5 9 12 15 19 18 17 19 19 17 17 16 12 13 16 17 19 23 27 29 31 36 39 40 41 43 44 46 47 48 48 48 48 49 49 48 48 47 47 47 46 46 42 37 28 24 32 32 27 30 27 19 15 11 10 9 6 4 4 7 11 13 17 21 20 20 18 16 13 11 12 12 12 13 15 17
34 37 34 32 29 26 22 16 10 6 7 10 12 16 17 15 15 17 16 15 15 12 11 13 14 17 21 24 25 27 32 36 39 40 41 43 45 46 47 47 48 48 48 48 48 48 48 48 48 47 47 44 44 37 24 29 34 28 29 30 20 15 13 13 13 9 6 5 5 7 9 12 15 18 21 21 19 16 13 14 14 14 14 16 18
29 34 37 35 32 29 26 21 15 10 8 8 9 13 16 16 13 14 15 14 13 12 11 11 11 14 17 19 21 24 28 33 37 39 41 43 45 46 46 47 48 47 48 48 48 49 48 48 48 48 49 46 47 44 31 28 33 30 30 32 24 15 10 10 11 10 7 6 4 4 9 10 9 13 18 22 21 17 15 15 15 15 15 16 18
28 33 38 38 36 32 28 23 20 15 11 8 7 9 12 14 13 12 14 14 12 11 11 11 11 12 14 16 18 21 24 28 33 36 40 42 43 45 45 46 48 48 49 50 50 50 49 48 48 47 49 49 47 48 42 34 32 31 31 32 29 25 20 14 14 15 10 6 5 4 7 10 7 7 13 19 20 17 16 16 16 16 16 17 18
Wind_Direction
190 178 179 182 177 172 173 181 182 181 181 176 178 178 177 177 176 174 168 164 162 160 160 160 157 156 154 152 153 154 153 151 150 145 144 143 142 139 134 130 126 127 125 127 129 128 127 123 120 118 119 120 126 124 111 101 95 95 94 96 98 99 97 94 90 88 92 93 94 97 98 93 89 89 87 85 83 82 81 85 84 69 62 71 72
186 178 179 182 178 173 174 180 182 182 182 179 180 181 180 178 180 177 171 168 166 166 166 166 165 163 161 160 160 162 162 158 155 153 153 152 151 145 140 136 131 132 134 140 137 134 129 127 125 124 131 134 134 125 113 102 96 98 95 93 92 95 96 94 91 89 91 93 95 98 101 97 90 90 87 85 84 83 81 83 90 84 73 75 74
182 179 179 182 178 174 175 180 181 183 183 181 183 183 183 182 183 180 174 175 174 173 171 172 170 168 167 166 167 168 167 162 162 159 156 156 154 153 151 145 141 142 141 140 139 139 135 132 128 130 141 141 133 116 103 95 99 104 99 97 94 92 93 93 93 92 94 95 99 98 95 95 92 90 85 81 84 86 83 81 87 85 80 84 83
181 180 179 181 179 176 175 179 182 184 184 182 185 185 185 186 187 183 180 181 181 179 176 178 175 173 173 172 173 171 170 163 163 161 158 157 154 158 157 151 148 146 144 142 144 144 141 138 133 142 155 148 145 116 91 96 108 110 102 99 97 96 94 95 96 97 99 102 108 101 91 92 95 93 87 82 84 88 85 80 79 79 77 81 90
179 182 181 181 180 179 176 178 183 184 185 183 185 187 187 188 189 187 186 185 185 185 182 183 180 178 178 177 177 172 171 166 161 158 157 156 149 149 148 147 145 144 145 146 149 145 147 144 138 159 171 159 154 119 101 111 119 116 108 100 100 104 99 100 100 100 101 106 114 103 93 95 98 94 90 86 84 84 83 80 77 77 75 74 83
179 183 182 181 181 183 179 179 184 184 187 186 186 188 190 190 190 189 190 188 187 190 184 184 183 182 183 180 179 175 171 168 162 156 154 152 146 143 139 140 141 145 147 147 146 141 155 151 142 168 176 174 170 145 162 170 166 158 170 137 126 134 124 125 116 116 108 104 109 104 97 97 99 96 92 88 79 79 80 80 79 76 77 77 76
180 185 182 181 182 188 185 181 184 185 188 188 188 190 191 192 192 190 190 189 187 189 185 185 186 185 186 183 182 177 170 168 163 161 160 157 149 143 139 137 138 142 143 144 143 143 160 149 150 183 182 189 205 223 265 285 282 282 280 277 274 265 249 221 197 185 142 122 114 109 104 103 104 99 98 100 85 85 88 84 85 80 80 82 74
184 186 183 183 183 195 191 184 186 186 189 190 190 191 193 194 194 193 191 190 187 187 186 187 190 189 187 184 183 174 170 170 168 170 167 163 155 151 147 142 142 143 145 144 144 156 165 143 162 202 199 210 229 256 279 284 285 289 291 290 285 280 272 260 241 221 189 168 145 134 118 105 100 98 103 115 103 100 94 77 68 68 74 82 82
187 186 185 185 186 199 194 187 187 187 190 191 192 193 194 196 198 196 194 193 189 187 188 191 193 191 187 181 178 173 173 174 174 177 176 175 168 164 160 158 157 154 163 158 151 166 165 151 189 218 221 235 247 266 279 282 283 287 288 290 286 282 276 270 260 237 197 183 164 159 146 115 93 101 125 130 125 123 110 92 70 56 60 78 92
186 187 187 187 190 198 192 188 189 189 192 194 195 196 195 197 200 197 196 197 193 191 190 192 193 191 188 181 179 179 179 180 181 181 184 187 182 179 176 174 171 170 180 178 169 173 166 176 218 230 236 246 258 271 279 283 285 290 290 290 284 280 274 268 263 248 204 175 155 147 154 130 100 101 158 153 139 128 132 133 112 86 78 84 94
185 187 189 189 196 196 190 190 191 190 192 196 197 197 196 197 200 196 198 201 198 197 193 192 194 191 186 182 183 185 185 187 188 194 200 200 200 198 196 191 186 193 193 185 183 186 174 187 228 237 246 255 265 272 277 285 289 296 295 296 290 282 271 261 252 238 209 182 159 134 120 112 100 92 128 125 105 92 101 113 104 100 99 99 93
186 188 191 193 197 194 188 191 192 191 192 197 198 198 198 198 199 197 200 201 200 201 196 194 192 189 187 187 192 194 193 196 202 220 226 218 219 212 203 204 202 205 196 182 185 185 176 197 239 246 254 259 267 272 279 289 294 303 305 313 309 303 285 253 225 212 200 185 171 151 120 94 101 107 111 102 87 81 89 98 103 110 102 98 89
189 189 192 195 195 191 188 191 193 194 195 197 197 198 199 199 199 198 200 200 200 200 194 193 190 189 191 194 201 205 202 210 222 228 229 215 211 205 196 201 200 196 185 177 178 174 187 223 246 249 257 261 268 276 287 297 313 330 345 360 5 10 6 32 178 179 184 177 169 161 130 86 98 115 112 96 91 95 98 102 117 133 119 143 211
194 192 193 193 192 192 190 192 193 196 198 198 197 198 200 201 201 199 201 200 199 196 192 194 197 201 204 206 210 215 219 226 225 216 214 205 200 197 192 193 189 185 177 180 190 196 214 236 245 247 254 257 266 281 313 349 28 37 48 45 50 50 53 66 112 154 167 171 162 157 127 82 102 113 102 93 90 93 101 109 116 142 188 236 253
200 196 194 193 193 194 193 193 194 195 197 200 199 199 201 202 202 200 201 199 198 198 199 206 211 212 215 220 219 224 228 221 214 206 205 202 197 195 192 189 186 185 179 191 213 219 226 233 237 240 241 231 202 112 91 83 75 64 63 61 64 63 67 77 96 131 154 164 157 146 112 91 116 107 90 89 83 81 93 101 104 252 267 270 266
204 198 196 195 195 195 196 196 196 196 197 201 200 200 200 201 203 201 203 203 207 209 209 213 216 217 216 219 218 221 222 215 212 205 203 201 197 196 193 190 189 187 185 205 221 221 222 224 224 211 186 155 129 115 105 93 82 69 65 62 62 66 69 80 95 118 149 161 158 135 90 89 113 99 88 88 80 76 67 106 244 261 269 274 273
202 200 200 198 198 197 199 200 200 199 199 202 201 201 201 202 204 205 207 208 214 216 215 215 220 220 215 216 215 216 218 218 217 206 202 202 199 198 195 193 192 189 194 212 219 215 217 211 196 172 157 144 128 116 107 95 84 70 63 59 58 63 66 76 90 111 132 153 161 129 81 101 117 102 97 93 89 71 46 264 260 266 271 275 281
203 204 205 203 201 201 201 202 204 203 202 204 205 204 204 205 207 209 211 212 216 218 218 218 221 219 212 215 215 214 218 218 214 204 203 205 202 203 201 198 192 192 203 214 214 212 208 192 177 166 157 146 133 123 109 91 74 60 52 52 54 58 62 74 84 103 115 140 154 129 111 143 139 114 100 100 95 79 65 280 275 280 284 284 287
207 208 208 206 205 205 205 205 206 206 205 206 208 208 208 208 209 211 213 215 216 217 217 215 217 216 210 212 213 214 216 214 211 207 206 208 208 207 203 200 195 199 209 212 211 207 197 185 178 172 166 157 147 135 114 79 51 35 30 31 32 40 50 62 76 92 108 136 140 137 163 153 135 105 89 109 97 357 277 285 285 291 294 297 297
213 213 211 209 209 209 209 210 210 210 209 209 211 212 213 212 212 213 214 216 216 216 214 212 215 214 209 211 213 214 214 214 213 210 210 211 211 207 201 198 198 203 208 208 207 201 192 187 183 178 174 167 159 147 117 65 33 15 10 7 7 12 19 32 48 72 95 127 134 153 177 155 113 77 62 62 39 283 283 294 306 320 325 346 352
217 216 214 212 212 213 213 214 214 214 213 213 215 215 216 215 214 214 215 215 214 215 213 211 214 213 211 211 213 212 211 212 212 211 211 211 211 208 200 193 196 201 204 205 202 196 194 191 186 183 178 171 161 148 136 87 19 358 351 346 347 348 351 360 12 29 56 100 136 164 173 156 107 71 68 68 52 360 19 63 69 66 65 61 63
216 216 216 215 215 216 216 216 216 217 216 217 219 218 218 216 214 214 215 215 213 214 212 212 213 212 212 212 212 209 206 207 207 206 206 208 210 207 198 189 192 200 203 202 199 196 196 194 191 187 180 175 168 167 176 184 228 284 311 320 324 326 332 338 345 352 1 23 198 195 172 159 110 74 76 81 74 76 78 86 87 83 79 73 74
214 214 214 213 213 216 218 218 218 219 219 221 222 220 219 216 214 213 214 214 213 213 212 213 212 211 213 212 207 205 203 201 203 204 202 204 206 203 194 189 193 201 203 201 199 197 197 198 196 190 184 182 182 188 198 206 219 234 256 281 296 304 315 321 327 331 330 325 297 269 215 183 130 85 82 90 87 92 94 93 93 91 85 82 80
216 214 213 211 212 214 217 218 220 221 221 222 223 221 218 216 213 212 212 210 212 213 211 213 211 211 214 210 202 206 208 204 208 210 206 204 203 199 194 194 198 203 204 200 198 198 200 201 195 191 192 192 193 199 205 211 218 224 236 253 271 285 297 306 310 314 315 311 300 283 255 210 175 114 92 105 102 104 109 102 99 96 91 88 83
221 215 212 214 216 214 214 216 218 220 220 220 221 220 217 215 212 212 211 207 210 211 210 213 213 214 216 211 207 214 214 209 213 213 206 201 197 195 194 195 198 203 203 196 197 200 202 200 195 195 197 199 201 205 207 208 214 218 225 235 251 268 282 292 298 302 305 303 299 290 272 226 198 154 113 119 118 116 118 113 107 101 98 94 87
225 221 219 221 221 218 215 213 213 215 216 216 218 219 217 216 213 211 209 207 209 209 211 213 215 217 216 214 214 218 215 209 212 209 201 197 192 191 192 193 195 202 200 195 199 202 201 198 197 198 200 203 204 207 208 207 209 212 218 223 234 247 261 274 282 289 291 292 290 285 274 243 205 173 141 133 131 129 127 123 117 109 104 100 93
228 228 225 224 224 222 218 215 214 212 213 213 214 218 218 217 214 213 211 209 210 211 213 214 215 217 216 217 217 217 213 209 211 207 203 199 194 192 193 196 199 203 202 200 205 203 200 198 199 202 202 205 205 206 207 206 207 207 214 218 226 236 248 263 270 275 278 278 278 274 266 243 202 170 146 139 141 137 135 132 125 116 110 108 102
232 232 229 226 226 226 221 217 216 211 209 211 212 216 219 218 216 217 216 213 214 214 215 216 216 217 217 218 217 215 212 210 211 209 208 205 201 201 202 203 205 207 205 204 206 202 200 200 201 202 203 205 204 205 205 204 205 205 210 215 223 236 248 263 271 274 274 271 268 263 254 231 194 164 139 137 143 140 140 141 135 124 116 115 110
235 235 232 229 230 229 224 219 217 214 210 207 210 214 218 218 217 218 218 216 217 216 215 217 217 217 217 218 217 215 213 212 213 211 210 208 206 208 207 208 209 208 207 205 203 202 202 201 202 203 203 205 204 205 205 204 205 205 207 212 221 233 246 261 270 275 274 270 265 259 243 213 184 160 135 125 136 141 139 140 139 131 121 122 115
239 237 235 234 232 230 228 224 220 218 213 207 209 213 216 218 219 220 219 218 218 217 217 218 218 218 218 219 218 217 216 215 214 212 211 210 209 210 209 209 211 210 208 205 203 203 204 204 203 203 204 204 204 204 204 205 205 206 208 211 220 231 244 257 264 270 270 266 260 252 231 204 181 160 142 125 122 127 132 140 142 130 127 130 119
240 237 238 237 234 232 231 228 223 220 217 212 210 212 215 217 219 220 220 220 221 219 218 218 218 219 219 219 219 218 218 217 216 214 212 211 210 210 209 210 212 210 208 206 204 203 205 206 204 204 204 204 204 203 203 204 206 210 211 215 222 231 242 252 259 261 256 251 245 234 210 197 185 166 147 126 118 115 114 124 129 122 126 131 121
240 241 241 238 237 234 231 230 226 222 220 216 212 213 213 213 215 216 218 220 222 221 219 219 219 220 221 221 220 220 219 219 218 217 214 212 211 209 209 211 212 211 209 207 206 205 205 207 207 206 205 204 203 203 203 203 206 211 213 216 221 229 238 246 252 252 246 235 221 208 191 186 185 174 154 137 132 128 122 120 114 109 114 121 118
246 247 243 238 239 235 233 232 228 224 222 220 217 215 214 213 213 211 213 216 220 221 220 221 221 221 223 223 222 221 220 220 219 219 216 213 212 211 211 212 212 212 210 208 207 206 206 207 208 206 205 204 203 203 203 203 207 210 212 215 217 225 232 236 240 239 232 220 204 193 183 178 179 181 175 166 161 153 147 138 119 108 108 110 116
255 251 245 242 240 236 234 231 228 227 224 221 219 219 219 217 215 214 213 213 218 220 220 222 221 222 223 224 223 223 222 221 220 219 216 214 214 213 213 213 213 212 210 208 207 206 206 207 206 204 203 202 203 204 204 204 206 209 211 214 217 222 226 230 233 230 221 209 200 189 180 176 175 182 188 189 186 175 165 154 136 120 117 112 115
257 251 249 248 242 238 235 231 228 228 225 223 222 222 222 220 218 217 213 214 219 220 220 221 222 223 224 224 224 223 223 222 221 220 217 215 215 214 214 214 214 213 210 208 207 206 207 207 205 203 200 200 203 203 203 204 206 208 210 211 216 220 223 227 226 221 214 203 197 191 183 181 181 186 189 194 200 195 186 173 160 153 147 132 121
258 254 253 250 243 239 237 232 229 228 226 226 225 224 223 222 222 220 219 223 224 222 221 222 223 223 224 224 224 223 223 223 223 221 218 216 215 215 216 216 215 212 210 209 207 207 206 206 205 203 201 199 201 202 202 203 204 206 209 210 213 214 213 217 216 210 205 198 194 192 189 188 190 192 193 197 202 202 200 195 188 183 177 167 154
263 259 254 249 244 240 237 234 231 230 228 228 227 226 224 225 226 224 225 227 226 223 222 223 223 223 223 223 224 223 223 223 224 222 220 218 217 217 217 217 216 212 210 209 207 207 207 206 205 203 202 200 200 200 200 201 203 205 207 208 206 204 204 205 206 203 198 195 193 192 192 195 196 197 199 202 204 202 202 204 205 204 198 190 182
268 263 256 251 246 241 239 237 233 230 228 227 226 225 225 226 227 226 226 227 226 224 224 224 223 223 223 223 224 224 223 223 224 223 221 220 219 218 218 218 216 212 210 209 207 207 208 208 206 203 202 200 198 198 198 198 200 201 200 203 200 197 200 202 199 194 192 193 194 193 193 196 199 200 204 206 206 203 202 204 208 212 213 207 199
271 266 259 252 247 242 241 239 233 228 227 226 225 224 223 224 224 225 227 227 226 225 224 224 224 224 224 224 225 224 223 223 223 223 221 220 220 219 219 219 215 211 210 208 206 207 208 207 206 205 202 198 196 195 197 196 194 194 193 194 195 195 197 197 193 187 189 193 194 195 195 196 200 203 205 207 208 207 205 207 210 213 218 217 212
279 269 260 251 246 241 239 238 233 228 225 222 221 219 216 216 218 220 224 225 225 226 225 225 225 225 225 225 225 224 223 223 223 222 221 221 220 220 220 219 215 212 210 208 208 209 208 207 206 205 202 198 195 194 196 192 181 175 178 180 185 191 193 192 192 190 191 193 192 193 194 196 199 203 205 207 212 216 215 216 215 216 218 218 216
298 282 266 255 249 241 237 236 233 227 222 217 215 213 209 208 211 215 219 221 222 225 226 226 226 226 226 225 225 224 223 223 223 222 221 221 219 219 218 217 215 212 211 211 211 211 210 207 205 204 202 198 196 196 194 185 168 154 150 155 168 182 190 189 192 195 194 193 192 191 193 195 198 202 207 213 219 225 224 225 222 220 218 212 208
328 309 287 271 259 246 238 235 233 228 223 220 217 216 213 211 213 215 217 216 220 222 223 225 226 226 226 226 225 224 224 223 223 222 221 220 218 217 217 216 215 213 212 212 212 212 210 207 204 201 199 197 198 198 191 181 177 175 158 147 155 173 190 194 196 197 195 195 195 193 192 194 200 204 210 218 225 229 227 227 225 221 216 208 199
360 351 331 306 280 256 245 237 233 231 228 224 222 220 218 217 218 218 217 215 221 225 224 226 227 227 227 227 225 225 224 224 224 223 221 220 218 217 217 217 216 214 212 211 212 211 210 208 205 201 196 193 198 200 193 188 187 176 162 167 177 171 193 205 205 201 195 194 194 195 196 199 203 203 204 212 217 222 225 231 233 228 222 210 195
9 11 3 343 314 280 259 245 237 235 232 228 227 224 221 221 220 221 222 219 224 229 228 230 231 229 228 228 227 226 225 225 225 224 222 220 220 219 218 218 217 215 213 212 211 211 210 209 206 202 196 191 192 200 198 195 190 174 171 187 166 183 223 197 192 197 194 194 196 198 201 200 200 196 191 198 205 215 227 240 245 239 229 215 193
2 10 12 4 344 317 285 261 246 240 235 233 232 226 223 222 218 220 223 223 227 228 227 229 229 228 228 229 229 227 226 226 226 225 224 222 221 220 219 219 218 216 214 213 213 213 212 211 208 204 202 198 192 195 199 200 198 191 193 182 143 214 244 162 167 189 195 200 203 204 207 203 200 200 199 206 214 223 236 247 251 240 225 210 191
4 11 15 13 6 351 325 289 262 246 239 236 234 227 222 220 212 210 212 213 220 220 219 220 218 222 225 228 231 230 228 228 227 226 225 223 222 221 220 220 219 217 215 214 214 214 213 213 211 207 206 204 196 191 197 202 204 204 204 199 194 215 130 147 161 179 188 204 213 211 215 213 209 210 213 219 224 230 240 246 248 236 216 199 187
11 18 17 15 14 11 0 330 289 262 249 241 233 225 218 215 213 212 212 212 216 217 215 214 216 219 221 225 229 230 229 228 228 227 226 224 223 221 221 221 220 219 217 215 215 216 215 215 214 211 209 206 200 194 196 201 206 211 212 211 213 212 154 158 181 172 174 203 213 215 222 221 219 219 220 226 227 229 237 241 243 232 213 197 185
22 25 22 17 16 15 15 2 329 290 266 252 235 226 219 215 215 217 220 223 224 225 217 214 217 218 219 223 226 227 228 228 227 228 227 225 224 223 222 222 220 220 219 216 216 217 217 217 216 214 211 208 205 203 200 201 203 209 214 216 223 223 205 193 203 209 218 212 194 206 220 221 223 223 222 225 226 226 230 236 240 228 211 200 188
27 28 27 24 21 18 20 16 360 338 292 270 245 233 228 222 221 221 226 232 233 237 232 224 221 221 221 222 222 224 227 227 227 228 228 227 226 225 224 222 221 221 220 219 218 219 219 218 217 215 213 211 211 210 207 206 206 206 210 213 218 222 219 219 217 214 230 234 192 188 195 205 222 226 223 225 227 228 228 233 238 226 211 202 193
25 28 32 32 28 22 23 23 12 360 330 295 263 246 237 232 231 229 232 236 235 238 240 234 227 224 222 218 218 221 225 226 226 227 228 228 228 226 225 224 222 222 221 221 220 221 220 220 219 218 216 215 215 213 212 213 212 210 211 210 205 200 204 216 215 206 213 234 233 192 178 185 205 214 218 224 226 226 227 230 235 226 212 204 198
24 28 32 34 33 28 26 26 21 11 353 328 292 266 251 243 240 238 239 240 240 242 242 239 232 224 222 217 216 218 221 225 225 226 228 228 227 226 225 225 223 223 223 223 222 222 221 221 220 220 219 218 217 216 216 217 216 214 214 211 207 205 204 203 201 199 199 208 218 207 185 190 196 187 203 218 220 219 223 228 229 222 211 205 201